Regional Weather Roundup
Issued by NWS Grand Forks, ND

Home | Current Version | Previous Version | Graphics & Text | Print | Product List | Glossary On
Versions: 1 2 3 4 5 6 7 8 9 10 11 12 13 14 15 16 17 18 19 20 21 22 23 24 25 26 27 28 29 30 31 32 33 34 35 36 37 38 39 40 41 42 43 44 45 46 47 48 49 50
000
ASUS43 KFGF 111510
RWRFGF
PRAIRIE TO PINES  WEATHER ROUNDUP
NATIONAL WEATHER SERVICE EASTERN NORTH DAKOTA/GRAND FORKS ND
900 AM CST SUN DEC 11 2016

 **SATELLITE DATA USED TO AUGMENT SKY COVER AT AUTOMATED STATIONS**
 *****  WEATHER ACROSS EASTERN NORTH DAKOTA  *****

CITY           SKY/WX    TMP DP  RH WIND       PRES   REMARKS
GRAND FORKS    LGT SNOW   5   0  79 NE7       30.04F WCI  -7
GRAND FRKS AFB LGT SNOW   3  -2  78 NE9       30.04R WCI -11
DEVILS LAKE    LGT SNOW   0  -4  83 NE7       30.00S FOG     WCI -13
FARGO          LGT SNOW  12   6  77 NE7       29.97F VSB 1   WCI   1
WAHPETON ARPT  CLOUDY    12   9  85 E7        29.95F WCI   2
$$

 ***** WEATHER ACROSS CENTRAL AND WESTERN NORTH DAKOTA  *****

CITY           SKY/WX    TMP DP  RH WIND       PRES   REMARKS
BISMARCK       CLOUDY     1  -4  79 N5        29.98R WCI  -9
MINOT          LGT SNOW  -7 -10  87 N7        30.00R FOG     WCI -21
JAMESTOWN      LGT SNOW   2  -3  80 N8        29.94S WCI -12
MINOT AFB      CLOUDY    -8 -13  77 N7        30.00S WCI -22
GARRISON         N/A     -2  -8  76 NE7       29.96R WCI -15
WILLISTON      CLOUDY   -12 -16  82 NE5       30.00R FOG     WCI -24
DICKINSON      CLOUDY    -3  -7  82 NW15      29.88R WCI -23
HETTINGER      CLOUDY     4  -1  80 NW17      29.91R WCI -16
$$

 *****  OTHER AIRPORT OBSERVATIONS IN OUR AREA  *****

CITY           SKY/WX    TMP DP  RH WIND       PRES   REMARKS
WALHALLA       LGT SNOW  -4  -4 100 N8        30.10F WCI -19
GRAFTON AIRPOR LGT SNOW   3   0  85 NE8       30.09S WCI -10
VALLEY CITY AR LGT SNOW   1   0  92 NE10      29.96S WCI -14
CANDO          LGT SNOW   1  -2  85 NE9       30.03S WCI -14
CAVALIER APRT  LGT SNOW   0  -2  92 N9        30.09F VSB 1   WCI -16
GWINNER        CLOUDY    10   7  85 N8        29.93S WCI  -1
SHEYENNE NWR     N/A      7   2  80 NE5       29.95S WCI  -2
ROLLA          LGT SNOW  -4  -8  84 N9        30.00S WCI -20
 ***** THE ABOVE OBSERVATIONS ARE NON NWS ARE NOT QUALITY
       CONTROLLED AND MAY MIS-REPORT RAIN FOR SNOW...
$$

  *****  WEATHER ACROSS NORTHERN MINNESOTA  *****

CITY           SKY/WX    TMP DP  RH WIND       PRES   REMARKS
FLAG ISLAND    NOT AVBL
WARROAD        CLOUDY     1  -2  85 E14       30.09R WCI -17
ROSEAU         CLOUDY     1  -4  78 E7        30.09S WCI -11
HALLOCK        LGT SNOW   3  -2  78 E10       30.08F WCI -12
THF RVR FALLS  LGT SNOW   4   0  83 E10       30.04S VSB 1   WCI -11
BAUDETTE       CLOUDY    -1  -6  79 E7        30.07F WCI -14
WASKISH        FLURRIES   0  -4  85 E6        30.05F WCI -12
CROOKSTON      LGT SNOW   7   3  85 E12       30.03F WCI  -9
GREENBUSH NDAW   N/A      1  -2  85 E8          N/A  WCI -12
$$
  *****  WEATHER ACROSS CENTRAL AND WEST MINNESOTA  *****

CITY           SKY/WX    TMP DP  RH WIND       PRES   REMARKS
FOSSTON        LGT SNOW   3   0  85 E9        29.99S WCI -11
BEMIDJI        LGT SNOW   2  -1  85 E8        29.98F VSB 3/4 WCI -11
PARK RAPIDS    SNOW       7   0  73 E9        29.95F VSB 1/2 WCI  -7
ELBOW LAKE     LGT SNOW  11   8  85 E12       29.92F WCI  -3
WADENA         LGT SNOW   9   3  78 NE8       29.93F VSB 1   WCI  -4
DETROIT LAKES  LGT SNOW  10   7  85 E5        29.94F WCI   2
MOORHEAD       LGT SNOW  10   7  85 E5        29.97F VSB 1   WCI   2
FERGUS FALLS   FLURRIES  10   7  85 E8        29.99S WCI  -1
MORRIS MN      CLOUDY    12   9  85 E13       29.91S WCI  -3
STAPLES        NOT AVBL
$$
  *****  WEATHER ELSEWHERE ACROSS MINNESOTA  *****

CITY           SKY/WX    TMP DP  RH WIND       PRES   REMARKS
DULUTH         SNOW      14  11  87 SE12      30.00F VSB 1/2 WCI   0
INTRNTL FALLS  CLOUDY     3  -2  79 E7        30.08F WCI  -9
ELY            FLURRIES   3   0  85 NE6       30.05F WCI  -8
CLOQUET        LGT SNOW  12   9  85 E6        30.00F VSB 1   WCI   3
WHEATON        LGT SNOW  16  12  86 E3        29.96S
BRAINERD       LGT SNOW  11   7  84 NE8       29.96F FOG     WCI  -1
HIBBING        SNOW       5   2  87 NE3       30.02F VSB 1/2
ALEXANDRIA     LGT SNOW  12   8  84 E12       29.91F FOG     WCI  -2
SAINT CLOUD    LGT SNOW  13  10  88 E8        29.94F FOG     WCI   2
MINNEAPOLIS    LGT SNOW  18  14  84 E8        29.93F FOG     WCI   8
$$

  *****  WEATHER ACROSS SOUTH DAKOTA  *****

CITY           SKY/WX    TMP DP  RH WIND       PRES   REMARKS
SIOUX FALLS    CLOUDY    22  19  89 N8        29.85R WCI  12
BROOKINGS      FLURRIES  14  10  84 NE6       29.85R WCI   5
WATERTOWN      CLOUDY    12   8  84 E6        29.85R WCI   3
HURON          CLOUDY    13  10  88 NW12      29.92R WCI  -1
SISSETON         N/A     13  10  88 E3        29.92S
ABERDEEN       CLOUDY     9   3  77 N10       29.93R HAZE    WCI  -5
MITCHELL       CLOUDY    16  13  88 NW15      29.92R WCI   1
PIERRE         LGT SNOW  10   6  84 NW14      29.95R FOG     WCI  -6
MOBRIDGE       FLURRIES   6  -1  73 NW9       29.91S WCI  -8
RAPID CITY     CLOUDY     7   2  80 W7        29.85S WCI  -5
$$

  *****  SOME WEATHER IN NEARBY STATES *****

CITY           SKY/WX    TMP DP  RH WIND       PRES   REMARKS
GLASGOW MT     CLOUDY   -13 -17  82 W6        29.98R WCI -27
GREAT FALLS MT CLOUDY    -1  -5  82 E5        29.81S WCI -11
CHEYENNE WY    CLOUDY    22  19  89 N10       29.82R WCI  11
SCOTTSBLUFF NE CLOUDY    30  17  58 NW8       29.89R WCI  22
OMAHA NE       CLOUDY    31  24  75 NW7       29.81R WCI  24
DES MOINES IA  FRZ DRZL  32  29  88 SE5       29.81S FOG
DAVENPORT IA   CLOUDY    29  27  92 SE8       29.90F FOG     WCI  21
CHICAGO IL     CLOUDY    27  24  89 S12       30.01F FOG     WCI  17
EAU CLAIRE WI  SNOW      17  14  88 NE8       29.96F VSB 1/2 WCI   7
LA CROSSE WI   LGT SNOW  23  19  85 NE5       29.95F FOG     WCI  17
$$

  *****  SOME NATIONAL WEATHER *****

CITY           SKY/WX    TMP DP  RH WIND       PRES   REMARKS
LA GUARDIA NY  CLOUDY    34  17  50 NW3       30.57S
RALEIGH NC     MOSUNNY   38  17  42 SE7       30.53R
ATLANTA GA     CLOUDY    38  24  57 E10       30.40R
NEW ORLEANS LA MOSUNNY   56  47  71 E8        30.25R
OKLAHOMA CITY  CLOUDY    54  50  86 S23       29.72F
ALBUQUERQUE NM CLOUDY    36  27  69 S8        30.04R
SALT LAKE CITY MOCLDY    35  32  88 SW6       30.09R
LOS ANGELES CA CLOUDY    60  59  96 CALM      30.12R FOG
BOISE ID       CLOUDY    28  26  92 SE7       30.09R WCI  21
SEATTLE WA     CLOUDY    41  37  86 S13       29.89F
$$

*** WEATHER ACROSS MANITOBA...SASKATCHEWAN AND ONTARIO ***
                ***ONTARIO***

CITY           SKY/WX    TMP DP  RH WIND       PRES   REMARKS
GERALDTON      CLOUDY     0  -2  92 SE5       30.20S WCI -10
THUNDER BAY    MOCLDY     3  -2  78 SW3       30.18F
SIOUX LOOKOUT  MOCLDY   -18 -24  76 CALM      30.15F
TORONTO        LGT SNOW  25  19  80 S5        30.34F WCI  19
BIG TROUT LK   FLURRIES -11 -15  84 SW8       30.18S WCI -28
PICKLE LAKE    LGT SNOW -15 -20  76 S3        30.17S
DRYDEN         CLOUDY   -13 -18  77 NE6       30.11F WCI -27
KENORA         MOCLDY    -6  -9  84 E8        30.09F WCI -21
$$
                *** MANITOBA***

CITY           SKY/WX    TMP DP  RH WIND       PRES   REMARKS
BRANDON        MOCLDY   -11 -17  77 NE6       30.08F WCI -25
DAUPHIN        CLEAR    -18 -24  76 SW7       30.11F WCI -35
ISLAND LAKE    FLURRIES  -8 -11  84 S7        30.12S WCI -22
PILOT MOUND      N/A     -6 -11  77 NE5         N/A  WCI -17
THE PAS        CLOUDY    -9 -15  77 S6        30.01F WCI -23
THOMPSON       MOCLDY   -13 -18  77 S3        29.97F
WINNIPEG       CRYSTALS -13 -18  77 N5        30.15S WCI -25
LYNN LAKE      FLURRIES -11 -15  84 SW8       29.79F WCI -28
GILLAM         MOCLDY   -13 -18  77 SW9       30.00F WCI -31
$$
                ***SASKATCHEWAN***

CITY           SKY/WX    TMP DP  RH WIND       PRES   REMARKS
ESTEVAN        PTCLDY   -13 -18  77 CALM      30.00S
KINDERSLEY     MOCLDY     0  -8  71 NW14      29.94R WCI -19
LLOYDMINSTER   MOCLDY   -13 -18  77 W13       29.96R WCI -34
PRINCE ALBERT  LGT SNOW  -2  -8  78 W7        29.93F WCI -16
REGINA         PTCLDY    -8 -13  77 S8        29.98S WCI -23
YORKTON        CLEAR    -18 -24  76 S3        30.01F
N. BATTLEFORD  CLOUDY     0  -8  71 NW18G24   29.96S WCI -22
LA RONGE       FLURRIES  -6 -11  77 SW3       29.88F
SASKATOON      LGT SNOW   0  -4  85 SW7       29.96F WCI -13
SWIFT CURRENT  FLURRIES  -6  -9  84 W13       29.88S WCI -25
$$
NOTE: THESE ARE AUTOMATED STATIONS WITH LIMITED QUALITY CONTROL
      "FAIR" INDICATES FEW OR NO CLOUDS BELOW 12,000 FEET WITH NO
      SIGNIFICANT WEATHER AND/OR OBSTRUCTIONS TO VISIBILITY.
      SKY/WX - SKY CONDITION AND SIGNIFICANT WEATHER.
      TMP - AIR TEMPERATURE.    DP   - DEWPOINT TEMPERATURE.
      RH  - RELATIVE HUMIDITY.  PRES - PRESSURE.
      HX  - HEAT INDEX.         WCI  - WIND CHILL INDEX.
$



USA.gov is the U.S. government's official web portal to all federal, state and local government web resources and services.